Gander International Airport

Jump to: basic info | weather | frequencies | runways | comments

Related pages: nearby airports | nearby navaids | notams | map

Basic information (top)

Codes: YQX CYQX
Location: lon 48.936901, lat -54.568100, elev 496 ft / 151 m msl
Status: medium_airport
Scheduled airline service: yes
Links: Wikipedia Mobile

Weather (top)

Current conditions (rec'd 2014/08/29 01:00Z):

CYQX 290100Z 05011G17KT 5SM -RA BR FEW005 BKN023 BKN030 OVC038 08/08 A2984 RMK SF2SC3SC1SC2 SLP108

Airport forecast (rec'd 2014/08/28 00:42Z):

TAF CYQX 282339Z 2900/2924 06010G20KT 4SM -SHRA BR FEW007 BKN025 OVC040 
      TEMPO 2900/2903 2SM -SHRA BR BKN007 OVC025 
     FM290300 05015G25KT P6SM -RA SCT007 OVC015 
      TEMPO 2903/2922 3SM -SHRA BR BKN007 OVC015 
     FM292200 36012KT P6SM SCT015 
      RMK NXT FCST BY 290600Z

Frequencies (top)

Verify before use: may be inaccurate or out of date.

A/D: 128.5 MHz (APP/DEP)
ATIS: 124.8 MHz (ATIS)
GND: 121.9 MHz (GND)
OPS: 128.85 MHz (OUTCAST OPS)
RCO: 126.7 MHz (HALIFAX RDO)
TWR: 118.1 MHz (TWR)

Runways (top)

03/21: 10,200 x 200 ft (3,109 x 61 m) — paved — lighted

09/27 [CLOSED]: 1,875 x 50 ft (572 x 15 m) — paved — not lighted

13/31: 8,900 x 200 ft (2,713 x 61 m) — paved — lighted

Latest comments (top)

Gander hospitality: Our USAirways flight from Dublin to ... [read]

More... (top)

See also NOTAMs and nearby airports and navaids, or visit the Gander International Airport page at the main OurAirports website..